Location: Ferchesar
(52.6477°N, 12.4298°E)
Time: 20:22:28
(UTC+02:00)

A-11 Canister half - Pass Details

Date: 12 March 2021
Orbit: 1525 x 1683 km, 47.3° (Epoch: 11 April)

Event Time Altitude Azimuth Distance (km) Brightness Sun altitude
Exits shadow 00:52:43 17° 102° (ESE) 3,309 10.7 -40.2°
Drops below altitude 10° 00:55:19 10° 88° (E) 3,795 11.1 -40.1°
Sets 00:59:14 0° 74° (ENE) 4,757 11.9 -40.0°
